When you browse on this site, cookies collect data to enhance your experience and personalize the content and advertising you see.
Visit our Privacy Policy to learn more. By continuing to use the site, you agree to this use of cookies and data.
  • In Schweiz
  • Länderverzeichnis
  • Für 7 Tage
  • Wassertemperatur
  • Satellitenkarten
  • Wetterkarte
  • Widgets
  • user-avatar
    Anmelden

    Stündliche Wetter Plavni

    Heute, 22 April, Montag

    Zeit Temperatur Niederschläge Wind Luftdruck Luftfeuchtigkeit
    00:00 +9°C° 0 mm 3 m/S 763 mmHg 52%
    01:00 +9°C° 0 mm 3 m/S 764 mmHg 54%
    02:00 +8°C° 0 mm 3 m/S 764 mmHg 55%
    03:00 +8°C° 0 mm 3 m/S 764 mmHg 55%
    04:00 +6°C° 0 mm 4 m/S 764 mmHg 56%
    05:00 +6°C° 0 mm 4 m/S 764 mmHg 57%
    06:00 +8°C° 0 mm 4 m/S 764 mmHg 53%
    07:00 +9°C° 0 mm 5 m/S 765 mmHg 49%
    08:00 +12°C° 0 mm 5 m/S 765 mmHg 45%
    09:00 +13°C° 0 mm 6 m/S 765 mmHg 41%
    10:00 +14°C° 0 mm 6 m/S 765 mmHg 37%
    11:00 +15°C° 0 mm 6 m/S 765 mmHg 33%
    12:00 +16°C° 0 mm 6 m/S 765 mmHg 33%
    13:00 +16°C° 0 mm 5 m/S 765 mmHg 32%
    14:00 +16°C° 0 mm 5 m/S 765 mmHg 32%
    15:00 +16°C° 0 mm 5 m/S 765 mmHg 35%
    16:00 +15°C° 0 mm 4 m/S 765 mmHg 38%
    17:00 +15°C° 0 mm 4 m/S 765 mmHg 42%
    18:00 +14°C° 0 mm 3 m/S 765 mmHg 44%
    19:00 +13°C° 0 mm 3 m/S 765 mmHg 46%
    20:00 +12°C° 0 mm 3 m/S 765 mmHg 48%
    21:00 +12°C° 0 mm 3 m/S 766 mmHg 49%
    22:00 +13°C° 0 mm 2 m/S 766 mmHg 50%
    23:00 +13°C° 0 mm 2 m/S 766 mmHg 51%

    Morgen, 23 April, Dienstag

    Zeit Temperatur Niederschläge Wind Luftdruck Luftfeuchtigkeit
    00:00 +12°C° 0 mm 2 m/S 766 mmHg 51%
    01:00 +12°C° 0 mm 2 m/S 766 mmHg 52%
    02:00 +12°C° 0 mm 2 m/S 767 mmHg 52%
    03:00 +10°C° 0 mm 2 m/S 767 mmHg 54%
    04:00 +10°C° 0 mm 2 m/S 767 mmHg 56%
    05:00 +9°C° 0 mm 2 m/S 767 mmHg 57%
    06:00 +12°C° 0 mm 2 m/S 768 mmHg 53%
    07:00 +13°C° 0 mm 2 m/S 768 mmHg 48%
    08:00 +15°C° 0 mm 2 m/S 768 mmHg 44%
    09:00 +16°C° 0 mm 2 m/S 768 mmHg 39%
    10:00 +17°C° 0 mm 2 m/S 768 mmHg 35%
    11:00 +18°C° 0 mm 3 m/S 768 mmHg 30%
    12:00 +18°C° 0 mm 2 m/S 768 mmHg 30%
    13:00 +18°C° 0 mm 2 m/S 768 mmHg 30%
    14:00 +18°C° 0 mm 2 m/S 768 mmHg 30%
    15:00 +18°C° 0 mm 2 m/S 768 mmHg 32%
    16:00 +18°C° 0 mm 2 m/S 768 mmHg 35%
    17:00 +19°C° 0 mm 1 m/S 768 mmHg 37%
    18:00 +16°C° 0 mm 1 m/S 768 mmHg 40%
    19:00 +15°C° 0 mm 1 m/S 768 mmHg 42%
    20:00 +13°C° 0 mm 1 m/S 768 mmHg 45%
    21:00 +13°C° 0 mm 1 m/S 768 mmHg 48%
    22:00 +12°C° 0 mm 1 m/S 768 mmHg 50%
    23:00 +11°C° 0 mm 1 m/S 769 mmHg 53%

    übermorgen, 24 April, Mittwoch

    Zeit Temperatur Niederschläge Wind Luftdruck Luftfeuchtigkeit
    00:00 +11°C° 0 mm 1 m/S 769 mmHg 54%
    01:00 +10°C° 0 mm 1 m/S 769 mmHg 54%
    02:00 +10°C° 0 mm 1 m/S 769 mmHg 55%
    03:00 +10°C° 0 mm 1 m/S 769 mmHg 56%
    04:00 +10°C° 0 mm 1 m/S 769 mmHg 58%
    05:00 +10°C° 0 mm 1 m/S 769 mmHg 59%
    06:00 +12°C° 0 mm 1 m/S 769 mmHg 54%
    07:00 +14°C° 0 mm 1 m/S 769 mmHg 49%
    08:00 +16°C° 0 mm 2 m/S 769 mmHg 44%
    09:00 +17°C° 0 mm 2 m/S 769 mmHg 40%
    10:00 +18°C° 0 mm 2 m/S 769 mmHg 37%
    11:00 +19°C° 0 mm 2 m/S 769 mmHg 33%
    12:00 +19°C° 0 mm 2 m/S 769 mmHg 33%
    13:00 +19°C° 0 mm 2 m/S 769 mmHg 33%
    14:00 +20°C° 0 mm 1 m/S 768 mmHg 33%
    15:00 +20°C° 0 mm 1 m/S 768 mmHg 34%
    16:00 +19°C° 0 mm 2 m/S 768 mmHg 35%
    17:00 +19°C° 0 mm 2 m/S 768 mmHg 36%
    18:00 +18°C° 0 mm 2 m/S 768 mmHg 40%
    19:00 +16°C° 0 mm 1 m/S 768 mmHg 43%
    20:00 +15°C° 0 mm 1 m/S 768 mmHg 46%
    21:00 +14°C° 0 mm 1 m/S 768 mmHg 48%
    22:00 +14°C° 0 mm 1 m/S 768 mmHg 50%
    23:00 +13°C° 0 mm 1 m/S 768 mmHg 52%

    25 April, Donnerstag

    Zeit Temperatur Niederschläge Wind Luftdruck Luftfeuchtigkeit
    00:00 +13°C° 0 mm 2 m/S 768 mmHg 53%
    01:00 +12°C° 0 mm 2 m/S 768 mmHg 55%
    02:00 +12°C° 0 mm 2 m/S 768 mmHg 56%
    03:00 +12°C° 0 mm 2 m/S 768 mmHg 58%
    04:00 +12°C° 0 mm 2 m/S 768 mmHg 60%
    05:00 +12°C° 0 mm 2 m/S 768 mmHg 62%
    06:00 +14°C° 0 mm 2 m/S 768 mmHg 58%
    07:00 +16°C° 0 mm 2 m/S 768 mmHg 55%
    08:00 +18°C° 0 mm 2 m/S 768 mmHg 51%
    09:00 +19°C° 0 mm 2 m/S 768 mmHg 47%
    10:00 +21°C° 0 mm 2 m/S 768 mmHg 44%
    11:00 +23°C° 0 mm 2 m/S 768 mmHg 40%
    12:00 +23°C° 0 mm 2 m/S 768 mmHg 39%
    13:00 +24°C° 0 mm 2 m/S 767 mmHg 39%
    14:00 +24°C° 0 mm 1 m/S 767 mmHg 39%
    15:00 +24°C° 0 mm 1 m/S 767 mmHg 42%
    16:00 +21°C° 0 mm 0 m/S 767 mmHg 45%
    17:00 +21°C° 0 mm 0 m/S 766 mmHg 48%
    18:00 +20°C° 0 mm 0 m/S 766 mmHg 49%
    19:00 +21°C° 0 mm 1 m/S 766 mmHg 50%
    20:00 +20°C° 0 mm 1 m/S 766 mmHg 51%
    21:00 +19°C° 0 mm 1 m/S 766 mmHg 52%
    22:00 +18°C° 0 mm 2 m/S 766 mmHg 53%
    23:00 +18°C° 0 mm 2 m/S 766 mmHg 55%

    26 April, Freitag

    Zeit Temperatur Niederschläge Wind Luftdruck Luftfeuchtigkeit
    00:00 +18°C° 0 mm 1 m/S 766 mmHg 56%
    01:00 +18°C° 0 mm 1 m/S 765 mmHg 58%
    02:00 +18°C° 0 mm 1 m/S 765 mmHg 59%
    03:00 +16°C° 0 mm 1 m/S 765 mmHg 61%
    04:00 +16°C° 0 mm 1 m/S 765 mmHg 64%
    05:00 +15°C° 0 mm 1 m/S 765 mmHg 67%
    06:00 +18°C° 0 mm 1 m/S 765 mmHg 61%
    07:00 +19°C° 0 mm 2 m/S 765 mmHg 56%
    08:00 +21°C° 0 mm 2 m/S 765 mmHg 51%
    09:00 +23°C° 0 mm 2 m/S 765 mmHg 46%
    10:00 +24°C° 0 mm 2 m/S 764 mmHg 41%
    11:00 +25°C° 0 mm 2 m/S 764 mmHg 36%
    12:00 +25°C° 0 mm 2 m/S 764 mmHg 36%
    13:00 +25°C° 0 mm 1 m/S 763 mmHg 36%
    14:00 +25°C° 0 mm 1 m/S 763 mmHg 36%
    15:00 +24°C° 0 mm 1 m/S 763 mmHg 40%
    16:00 +24°C° 0 mm 1 m/S 763 mmHg 44%
    17:00 +21°C° 0 mm 0 m/S 762 mmHg 48%
    18:00 +22°C° 0 mm 1 m/S 762 mmHg 50%
    19:00 +21°C° 0 mm 1 m/S 762 mmHg 51%
    20:00 +20°C° 0 mm 1 m/S 762 mmHg 52%
    21:00 +19°C° 0 mm 1 m/S 762 mmHg 54%
    22:00 +18°C° 0 mm 2 m/S 762 mmHg 56%
    23:00 +17°C° 0 mm 2 m/S 762 mmHg 58%

    27 April, Samstag

    Zeit Temperatur Niederschläge Wind Luftdruck Luftfeuchtigkeit
    00:00 +17°C° 0 mm 2 m/S 762 mmHg 57%
    01:00 +18°C° 0 mm 1 m/S 762 mmHg 56%
    02:00 +18°C° 0 mm 1 m/S 761 mmHg 56%
    03:00 +16°C° 0 mm 0 m/S 761 mmHg 56%
    04:00 +16°C° 0 mm 0 m/S 761 mmHg 57%
    05:00 +15°C° 0 mm 0 m/S 761 mmHg 57%
    06:00 +16°C° 0 mm 0 m/S 761 mmHg 56%
    07:00 +19°C° 0 mm 1 m/S 762 mmHg 55%
    08:00 +20°C° 0 mm 1 m/S 762 mmHg 54%
    09:00 +21°C° 0 mm 1 m/S 762 mmHg 49%
    10:00 +22°C° 0 mm 1 m/S 762 mmHg 44%
    11:00 +24°C° 0 mm 1 m/S 762 mmHg 39%
    12:00 +24°C° 0 mm 2 m/S 761 mmHg 39%
    13:00 +24°C° 0 mm 2 m/S 761 mmHg 39%
    14:00 +23°C° 0 mm 2 m/S 761 mmHg 39%
    15:00 +23°C° 0 mm 2 m/S 761 mmHg 41%
    16:00 +23°C° 0 mm 2 m/S 761 mmHg 43%
    17:00 +22°C° 0 mm 3 m/S 760 mmHg 45%
    18:00 +21°C° 0 mm 2 m/S 761 mmHg 48%
    19:00 +19°C° 0 mm 2 m/S 761 mmHg 51%
    20:00 +18°C° 0 mm 2 m/S 761 mmHg 54%
    21:00 +17°C° 0 mm 2 m/S 761 mmHg 56%
    22:00 +16°C° 0 mm 1 m/S 761 mmHg 59%
    23:00 +15°C° 0 mm 1 m/S 761 mmHg 61%
    Mehr zeigen